Location: Les Thiberg�res
(47.8554°N, 1.0978°W)
Time: 10:46:04
(UTC+00:00)

STARLINK-1131 - Pass Details

Date: 17 February 2020
Orbit: 553 x 556 km, 53.0° (Epoch: 05 April)

Event Time Altitude Azimuth Distance (km) Brightness Sun altitude
Exits shadow 05:01:04 41° 342° (NNW) 822 4.3 -21.9°
Drops below altitude 10° 05:05:21 10° 66° (ENE) 1,843 7.3 -21.2°
Enters shadow 06:01:14 -72° 270° (W) 12,682 10.4 -11.9°
Maximum altitude 06:41:36 50° 15° (NNE) 711 4.2 -5.2°
